Regional Weather Roundup
Issued by NWS

Home | Current Version | Previous Version | Graphics & Text | Print | Product List | Glossary On
Versions: 1 2 3 4 5 6 7 8 9 10 11 12 13 14 15 16 17 18 19 20 21 22 23 24 25 26 27 28 29 30 31 32 33 34 35 36 37 38 39 40 41 42 43 44 45 46 47 48 49 50
000
ASUS43 KLOT 212303
RWRIL

ILLINOIS REGIONAL WEATHER ROUNDUP
NATIONAL WEATHER SERVICE CHICAGO/ROMEOVILLE IL
500 PM CST TUE NOV 21 2017

NOTE: "FAIR" INDICATES FEW OR NO CLOUDS BELOW 12,000 FEET WITH NO
SIGNIFICANT WEATHER AND/OR OBSTRUCTIONS TO VISIBILITY.

* THESE STATIONS ARE NOT UNDER NWS QUALITY CONTROL. THEY ALSO MAY NOT
  REPORT WEATHER SUCH AS PRECIPITATION OR FOG.

ILZ001-002-007-009-015-016-024-220000-
NORTHWEST ILLINOIS

CITY           SKY/WX    TMP DP  RH WIND       PRES   REMARKS
MOLINE         CLEAR     33  17  51 NW14G25   30.15R WCI  23
STERLING*      MOCLDY    32  20  61 NW12      30.12R WCI  23
SAVANNA*       CLEAR     32  17  54 NW9G17    30.13R WCI  24
$$

ILZ003-004-008-010-011-017-018-220000-
NORTH CENTRAL ILLINOIS

CITY           SKY/WX    TMP DP  RH WIND       PRES   REMARKS
ROCKFORD       PTCLDY    32  18  56 NW15G23   30.10R WCI  22
FREEPORT*      CLEAR     29  17  61 NW9       30.11R WCI  20
ROCHELLE*      CLOUDY    32  21  63 NW10G20   30.09R WCI  24
DE KALB*       PTCLDY    32  21  64 NW12      30.07R WCI  23
PERU*          CLOUDY    32  23  68 NW10      30.12R WCI  24
$$

ILZ005-006-012>014-019>023-220000-
NORTHEAST ILLINOIS

CITY           SKY/WX    TMP DP  RH WIND       PRES   REMARKS
CHICAGO-OHARE  PTCLDY    34  17  50 NW13      30.05R WCI  25
CHICAGO-MIDWAY NOT AVBL
AURORA         PTCLDY    31  22  69 NW9       30.07R WCI  23
LANSING*       CLEAR     34  22  62 NW14G23   30.05R WCI  24
JOLIET*        CLEAR     34  22  61 NW5       30.08R WCI  30
WAUKEGAN       MOCLDY    32  16  51 NW7G16    30.04R WCI  26
DUPAGE AIRPORT PTCLDY    32  19  58 NW12      30.05R WCI  23
KANKAKEE*      MOCLDY    33  23  67 NW10      30.08R WCI  25
WHEELING       MOCLDY    34  18  52 NW14      30.06R WCI  25
MORRIS*        PTCLDY    32  23  70 NW9       30.07R WCI  24
ROMEOVILLE*    PTCLDY    33  22  63 NW8       30.07R WCI  26
NORTHERLY ISL    N/A     35  18  50 NW9         N/A  WCI  28
$$

LMZ740>746-220000-
SOUTHERN LAKE MICHIGAN

STATION/POSITION SKY/WX   TEMP    WIND        PRES    VSBY  WAVE
                          AIR SEA DIR/SP/G                  HT/PER
                          (F)     (DEG/KT/KT) (MB)    (MI)  (FT/S)
SOUTHERN BUOY              36 47  340/ 21/ 27 1014.7          6/ 6
HARRISON CRIB              35     310/ 23/ 24   N/A
BURNHAM HARBOR             35     280/  9/ 18   N/A
CALUMET HARBOR             34     300/  9/ 16 1016.4R
BURNS HARBOR               39     340/ 23/ 27 1014.9
MICHIGAN CITY              36     300/ 24/ 27   N/A
$$

ILZ025>027-034>036-040-047-049-050-058-095>099-220000-
WEST-CENTRAL ILLINOIS

CITY           SKY/WX    TMP DP  RH WIND       PRES   REMARKS
QUINCY         CLEAR     34  20  56 NW21      30.18R WCI  22
GALESBURG*     CLEAR     32  22  65 NW12      30.16R WCI  23
MACOMB*        CLEAR     32  21  63 NW16      30.19R WCI  21
JACKSONVILLE*  CLEAR     35  22  60 NW15      30.15R WCI  25
PITTSFIELD*    CLEAR     37  23  56 NW14      30.17R WCI  28
$$

ILZ028>032-037-038-041>044-048-051>054-059>061-220000-
CENTRAL ILLINOIS

CITY           SKY/WX    TMP DP  RH WIND       PRES   REMARKS
PONTIAC        CLOUDY    34  25  68 NW12      30.11R WCI  25
BLOOMINGTON    PTCLDY    31  21  66 NW13      30.12R WCI  21
DECATUR        CLOUDY    39  24  55 NW16      30.10R WCI  30
PEORIA         CLEAR     33  20  58 NW10G18   30.14R WCI  25
LACON*         MOCLDY    33  21  63 NW10G17   30.12R WCI  24
LINCOLN*       PTCLDY    35  24  65 NW8       30.14R WCI  28
SPRINGFIELD    PTCLDY    36  21  54 NW20      30.14R WCI  25
TAYLORVILLE    CLOUDY    40  25  56 NW16      30.12R
$$

ILZ033-039-045-046-055>057-062-063-220000-
EAST-CENTRAL ILLINOIS

CITY           SKY/WX    TMP DP  RH WIND       PRES   REMARKS
CHAMPAIGN      CLOUDY    38  32  79 NW8       30.07R WCI  32
DANVILLE*      CLOUDY    35  30  82 NW10      30.04R WCI  27
RANTOUL*       CLOUDY    37  27  68 NW17G24   30.08R WCI  27
MATTOON        LGT RAIN  40  30  67 NW14      30.06R
PARIS*         LGT RAIN  36  33  89 N9        30.07R WCI  29
$$

ILZ079-100>102-220000-
SOUTHWEST ILLINOIS

CITY           SKY/WX    TMP DP  RH WIND       PRES   REMARKS
ALTON          MOCLDY    43  25  49 NW14      30.12R
BELLEVILLE     CLOUDY    48  28  44 N15       30.08R
CAHOKIA*       CLOUDY    47  21  35 N17G26    30.11R
SPARTA*        MOCLDY    51  33  50 N10G21    30.08R
$$

ILZ064>066-069>071-074>076-080>082-084>086-088>090-092>094-220000-
SOUTH-CENTRAL ILLINOIS

CITY           SKY/WX    TMP DP  RH WIND       PRES   REMARKS
CARBONDALE     CLOUDY    53  37  54 NW5       30.03R
CAIRO*         CLEAR     50  39  67 CALM      30.03R
EFFINGHAM*     CLOUDY    45  32  60 NW20      30.08R
MARION         PTCLDY    54  36  50 NW7       30.03R
MT. VERNON     CLOUDY    50  29  44 VRB5      30.05R
CENTRALIA*     CLOUDY    49  33  55 N16G24    30.06R
SALEM*         CLOUDY    47  27  45 N17G23    30.07R
METROPOLIS*    CLEAR     52  39  62 W6        30.04R
$$

ILZ067-068-072-073-078-083-087-091-220000-
SOUTHEAST ILLINOIS

CITY           SKY/WX    TMP DP  RH WIND       PRES   REMARKS
LAWRENCEVILLE  CLOUDY    51  37  58 W7        30.02R
FLORA*         CLOUDY    49  31  49 NW15G23   30.05R
FAIRFIELD*     CLOUDY    52  36  54 CALM      30.03R
HARRISBURG*    CLOUDY    51  37  58 NW3       30.02S
ROBINSON*      CLOUDY    49  35  60 NW12G20   30.03R
CARMI*         PTCLDY    51  38  60 W8        30.01R
$$

ABBREVIATIONS USED IN REMARKS
   TC - TEMPERATURE IN CELSIUS
  WCI - WIND CHILL INDEX
   HX - HEAT INDEX
  VSB - VISIBILITY
$$




USA.gov is the U.S. government's official web portal to all federal, state and local government web resources and services.